TimeCDT,TemperatureF,Dew PointF,Humidity,Sea Level PressureIn,VisibilityMPH,Wind Direction,Wind SpeedMPH,Gust SpeedMPH,PrecipitationIn,Events,Conditions,WindDirDegrees,DateUTC
12:53 AM,37.9,36.0,93,30.04,10.0,Calm,Calm,-,N/A,,Clear,0,2012-11-01 05:53:00
1:53 AM,37.9,35.1,89,30.04,10.0,Calm,Calm,-,N/A,,Clear,0,2012-11-01 06:53:00
2:53 AM,36.0,35.1,97,30.04,10.0,Calm,Calm,-,N/A,,Clear,0,2012-11-01 07:53:00
3:53 AM,35.1,33.1,92,30.04,10.0,Calm,Calm,-,N/A,,Clear,0,2012-11-01 08:53:00
4:53 AM,35.1,34.0,96,30.03,10.0,Calm,Calm,-,N/A,,Clear,0,2012-11-01 09:53:00
7:53 AM,33.1,33.1,100,30.03,10.0,Calm,Calm,-,N/A,,Clear,0,2012-11-01 12:53:00
8:53 AM,41.0,37.0,86,30.04,10.0,Calm,Calm,-,N/A,,Clear,0,2012-11-01 13:53:00
9:53 AM,48.9,39.9,71,30.03,10.0,Calm,Calm,-,N/A,,Clear,0,2012-11-01 14:53:00
10:53 AM,60.1,39.9,47,30.03,10.0,Calm,Calm,-,N/A,,Clear,0,2012-11-01 15:53:00
11:53 AM,69.1,41.0,36,30.01,10.0,Variable,3.5,-,N/A,,Clear,0,2012-11-01 16:53:00
12:53 PM,73.9,37.0,26,29.99,10.0,SW,5.8,-,N/A,,Clear,220,2012-11-01 17:53:00
1:53 PM,75.9,37.0,24,29.96,10.0,Calm,Calm,-,N/A,,Clear,0,2012-11-01 18:53:00
2:53 PM,78.1,39.9,25,29.92,10.0,Calm,Calm,-,N/A,,Clear,0,2012-11-01 19:53:00
3:53 PM,79.0,39.9,25,29.92,10.0,Variable,3.5,-,N/A,,Clear,0,2012-11-01 20:53:00
4:53 PM,78.1,39.9,25,29.91,10.0,Calm,Calm,-,N/A,,Clear,0,2012-11-01 21:53:00
5:53 PM,71.1,48.0,44,29.91,10.0,Calm,Calm,-,N/A,,Clear,0,2012-11-01 22:53:00
6:53 PM,57.0,45.0,64,29.93,10.0,Calm,Calm,-,N/A,,Clear,0,2012-11-01 23:53:00
7:53 PM,52.0,44.1,74,29.93,10.0,Calm,Calm,-,N/A,,Clear,0,2012-11-02 00:53:00
8:53 PM,48.9,42.1,77,29.94,10.0,Calm,Calm,-,N/A,,Clear,0,2012-11-02 01:53:00
9:53 PM,46.0,42.1,86,29.93,10.0,Calm,Calm,-,N/A,,Clear,0,2012-11-02 02:53:00
10:53 PM,45.0,41.0,86,29.92,10.0,Calm,Calm,-,N/A,,Clear,0,2012-11-02 03:53:00
11:53 PM,44.1,41.0,89,29.93,10.0,Calm,Calm,-,N/A,,Clear,0,2012-11-02 04:53:00